Lexington Weather

Lexington, Massachusetts, USA

72°F
9/22/2021 2:35pm 
  • Lexington Conditions: Overcast
  • Temperature: 71.8°F / 22.1°CColder 2.1°F than last hour.
  • Dew Point: 69.1°FIncreased 0.9°Fsince last hour.
  • Relative Humidity: 91%Increased 9.0% since last hour.
  • Wind: Wind from SW SW 2 mph, 10-min avg: 3 mph, gust: 11 mph
  • Barometer: 30.08 inFalling 0.02  inHg/hr Falling Slowly
  • Visibility: 10 miles
  • Rain Today: 0.00 in
  •   

Regional Weather Roundup
for Boston / Norton, MA

        
000
ASUS41 KBOX 220104
RWRBOX

REGIONAL WEATHER ROUNDUP
NATIONAL WEATHER SERVICE BOSTON/NORTON MA
900 PM EDT TUE SEP 21 2021

NOTE:  "FAIR" INDICATES FEW OR NO CLOUDS BELOW 12,000 FEET WITH NO 
SIGNIFICANT WEATHER AND/OR OBSTRUCTIONS TO VISIBILITY.

MAZALL-220200-
EASTERN MASSACHUSETTS
  
CITY           SKY/WX    TMP DP  RH WIND       PRES   REMARKS
BOSTON         CLOUDY    70  63  78 SE9       30.33F                  
BEVERLY        PTCLDY    67  65  93 S5        30.33S                  
LAWRENCE       CLEAR     66  63  90 SE3       30.34F                  
BEDFORD        CLEAR     65  62  90 SE7       30.32S                  
BLUE HILL      NOT AVBL                                               
NORWOOD        CLOUDY    68  61  78 CALM      30.32F                  
MARSHFIELD     CLOUDY    68  66  94 SE5       30.33F                  
PLYMOUTH       CLOUDY    69  65  86 SE6       30.34F                  
TAUNTON        CLOUDY    69  65  86 SE6       30.33S                  
NEW BEDFORD    CLOUDY    70  68  93 SE7       30.32F                  
$$

MAZALL-220200-
CAPE COD AND THE ISLANDS
  
CITY           SKY/WX    TMP DP  RH WIND       PRES   REMARKS
FALMOUTH       MOCLDY    68  68 100 S6        30.34F                  
HYANNIS        LGT RAIN  68  66  93 CALM      30.34S FOG              
CHATHAM        CLOUDY    66  62  87 SE7       30.36F                  
PROVINCETOWN   LGT RAIN  67  65  93 S6        30.36S                  
NANTUCKET      PTCLDY    67  63  87 E8        30.34F                  
MARTHAS VNYRD  CLOUDY    68  67  96 SE8       30.34S                  
$$
 
MAZALL-220200-
CENTRAL AND WESTERN MASSACHUSETTS
  
CITY           SKY/WX    TMP DP  RH WIND       PRES   REMARKS
WORCESTER      PTCLDY    64  57  78 S7        30.34F                  
FITCHBURG      CLEAR     62  59  90 CALM      30.33S                  
ORANGE         PTCLDY    60  58  92 CALM      30.34R                  
SPRINGFIELD    NOT AVBL                                               
WESTFIELD      MOCLDY    63  62  97 CALM      30.31S                  
NORTH ADAMS    PTCLDY    64  58  80 VRB5      30.31R                  
PITTSFIELD     PTCLDY    63  58  83 SE7       30.31S                  
$$
 
RIZALL-220200-
RHODE ISLAND
  
CITY           SKY/WX    TMP DP  RH WIND       PRES   REMARKS
PROVIDENCE     MOCLDY    69  64  84 E6        30.32F                  
NEWPORT        CLOUDY    68  67  96 SE3       30.32F                  
BLOCK ISLAND   CLOUDY    68  67  96 SE8       30.32S                  
SMITHFIELD     CLOUDY    66  62  87 SE5       30.33F                  
WESTERLY       PTCLDY    64  62  93 CALM      30.31F                  
$$
 
CTZALL-220200-
CONNECTICUT
  
CITY           SKY/WX    TMP DP  RH WIND       PRES   REMARKS
BRADLEY INTL   MOCLDY    65  59  81 S3        30.31S                  
HARTFORD       MOCLDY    66  59  78 SE5       30.30S                  
BRIDGEPORT     CLOUDY    72  65  78 E10       30.29S                  
DANBURY        MOCLDY    69  64  84 SE6       30.30F                  
GROTON         PTCLDY    67  61  81 E7        30.30S                  
NEW HAVEN      PTCLDY    68  63  84 E6        30.30S                  
CHESTER        MOCLDY    64  61  88 CALM      30.32S                  
MERIDEN        MOCLDY    62  59  90 CALM      30.30S                  
WILLIMANTIC    MOCLDY    63  61  93 CALM      30.33S                  
OXFORD         MOCLDY    64  60  87 SE7       30.32S                  
$$

MEZ002-015-021-024-NHZ003-005-008-011-012-014-VTZ005-008-220200-
NORTHERN NEW ENGLAND
  
CITY           SKY/WX    TMP DP  RH WIND       PRES   REMARKS
PORTLAND ME    CLEAR     61  61 100 CALM      30.35F                  
BANGOR ME      PTCLDY    61  59  93 S8        30.36F                  
CONCORD NH     CLEAR     62  59  90 CALM      30.33S                  
MANCHESTER NH  PTCLDY    66  60  81 SE7       30.30F                  
NASHUA NH      CLEAR     64  64 100 SE3       30.33S                  
PORTSMOUTH NH  MOCLDY    63  61  94 SE6       30.34S                  
JAFFREY NH     PTCLDY    61  60  97 CALM      30.34S                  
KEENE NH       PTCLDY    60  59  96 CALM      30.33R                  
BURLINGTON VT  MOCLDY    68  52  56 S9        30.24F                  
MT. WASHINGTON MOCLDY    45  36  70 S30G36      N/A                   
$$

NYZ052-076-220200-
EASTERN NEW YORK
  
CITY           SKY/WX    TMP DP  RH WIND       PRES   REMARKS
ALBANY         MOCLDY    63  58  83 SE5       30.27S                  
NEW YORK CITY  MOCLDY    73  65  75 E10       30.26S                  
$$
 
ANZALL-220200-
MARINE OBSERVATIONS
  
STATION/POSITION TIME  TEMP    WIND        PRES    VSBY  WAVE
                       AIR SEA DIR/SP/G                  HT/PER
                 (UTC) (F)     (DEG/KT/KT) (MB)    (MI)  (FT/S)
BOSTON BUOY      0040      66  150/ 10/ 12 1027.7F
BUZZARDS BAY     0000          130/ 14/ 15 1027.8S
NANTUCKET SOUND  0050   71 71  130/ 14/ 16 1027.2F         1/ 3
MASS BAY-STELLWA 0004   67     160/ 12/ 16 1027.1F  1 7/8  3/ 5
ISLE OF SHOALS   0000   65     140/ 13/ 14 1026.7F
S OF BLOCK IS    0026      70                N/A           3/11
$$

......................KEY.........................
  SKY/WX - SKY CONDITION/PRESENT WEATHER
  TMP    - TEMPERATURE IN FAHRENHEIT
  DWPT   - DEWPOINT IN FAHRENHEIT
  RH     - RELATIVE HUMIDITY IN PERCENT
  WIND   - DIRECTION AND SPEED IN MPH
  PRES   - MEAN SEA LEVEL PRESSURE IN INCHES OF HG
  WCI    - WIND CHILL INDEX
  VSB    - VISIBILITY IN MILES
  HX     - HEAT INDEX
  TC     - TEMPERATURE IN CELSIUS
  VRB    - VARIABLE WIND DIRECTION
  N/A    - NOT AVAILABLE
  
      

Other recent Regional Weather Roundups

Wed Sep 22, 2:04pm

Wed Sep 22, 1:04pm

Wed Sep 22, 12:05pm

Wed Sep 22, 11:04am

Wed Sep 22, 10:04am

Wed Sep 22, 9:04am

Wed Sep 22, 8:04am

Wed Sep 22, 7:04am

Wed Sep 22, 6:04am

Wed Sep 22, 5:04am

Wed Sep 22, 4:04am

Wed Sep 22, 3:04am

Wed Sep 22, 2:04am

Wed Sep 22, 1:04am

Wed Sep 22, 12:04am

Tue Sep 21, 11:04pm

Tue Sep 21, 10:04pm

Tue Sep 21, 8:04pm

Tue Sep 21, 7:04pm

Tue Sep 21, 6:04pm

Tue Sep 21, 5:04pm

Tue Sep 21, 4:04pm

Tue Sep 21, 3:04pm

Tue Sep 21, 2:04pm

Tue Sep 21, 1:04pm

Tue Sep 21, 12:04pm

Tue Sep 21, 11:04am

Tue Sep 21, 10:04am

Tue Sep 21, 9:04am

Tue Sep 21, 8:04am

Tue Sep 21, 7:04am

Tue Sep 21, 6:04am

Tue Sep 21, 5:04am

Tue Sep 21, 4:04am

Tue Sep 21, 3:04am

Tue Sep 21, 2:04am

Tue Sep 21, 1:04am

Tue Sep 21, 12:04am

Mon Sep 20, 11:04pm

Mon Sep 20, 10:04pm

Mon Sep 20, 9:04pm

Mon Sep 20, 8:04pm

Mon Sep 20, 7:04pm

Mon Sep 20, 6:04pm

Mon Sep 20, 5:04pm

Mon Sep 20, 4:04pm

Mon Sep 20, 3:04pm

Mon Sep 20, 2:04pm

Mon Sep 20, 1:04pm

Mon Sep 20, 12:04pm

Mon Sep 20, 11:04am

Mon Sep 20, 10:04am

Mon Sep 20, 9:04am

Mon Sep 20, 7:04am

Mon Sep 20, 6:04am

Mon Sep 20, 5:04am

Mon Sep 20, 4:04am

Mon Sep 20, 3:04am

Mon Sep 20, 2:04am

Mon Sep 20, 1:04am

Mon Sep 20, 12:04am

Sun Sep 19, 11:04pm

Sun Sep 19, 10:04pm

Sun Sep 19, 9:04pm

Sun Sep 19, 8:04pm

Sun Sep 19, 7:04pm

Sun Sep 19, 6:04pm

Sun Sep 19, 5:04pm

Sun Sep 19, 4:04pm

Sun Sep 19, 3:04pm

Sun Sep 19, 2:05pm

Sun Sep 19, 1:04pm

Sun Sep 19, 12:04pm

Sun Sep 19, 11:04am

Sun Sep 19, 10:05am

Sun Sep 19, 9:04am

Sun Sep 19, 8:04am

Sun Sep 19, 7:04am

Sun Sep 19, 6:04am

Sun Sep 19, 5:04am

Sun Sep 19, 4:04am

Sun Sep 19, 3:04am

Sun Sep 19, 2:04am

Sun Sep 19, 1:04am

Sun Sep 19, 12:04am

Sat Sep 18, 11:05pm

Sat Sep 18, 10:04pm

Sat Sep 18, 9:04pm

Sat Sep 18, 8:04pm

Sat Sep 18, 7:04pm

Sat Sep 18, 6:04pm

Sat Sep 18, 5:04pm

Sat Sep 18, 4:04pm

Sat Sep 18, 3:04pm

Sat Sep 18, 2:04pm

Sat Sep 18, 1:04pm

Sat Sep 18, 12:04pm

Sat Sep 18, 11:04am

Sat Sep 18, 10:04am

Sat Sep 18, 9:04am

Sat Sep 18, 8:04am

Sat Sep 18, 7:04am

Sat Sep 18, 6:04am

Sat Sep 18, 5:04am

Sat Sep 18, 4:04am

Sat Sep 18, 3:04am

Sat Sep 18, 2:04am

Sat Sep 18, 1:04am

Sat Sep 18, 12:04am

Fri Sep 17, 11:04pm

Fri Sep 17, 10:04pm

Fri Sep 17, 9:04pm

Fri Sep 17, 8:04pm

Fri Sep 17, 7:04pm

Fri Sep 17, 6:04pm

Fri Sep 17, 5:04pm

Fri Sep 17, 4:04pm

Fri Sep 17, 3:04pm

Fri Sep 17, 2:04pm

Fri Sep 17, 1:04pm

Fri Sep 17, 12:05pm

Fri Sep 17, 11:04am

Fri Sep 17, 10:04am

Fri Sep 17, 9:04am

Fri Sep 17, 8:04am

Fri Sep 17, 7:04am

Fri Sep 17, 6:04am

Fri Sep 17, 5:04am

Fri Sep 17, 4:04am

Fri Sep 17, 3:04am

Fri Sep 17, 2:04am

Fri Sep 17, 1:04am

Fri Sep 17, 12:04am

Thu Sep 16, 11:04pm

Thu Sep 16, 10:04pm

Thu Sep 16, 9:04pm

Thu Sep 16, 8:04pm

Thu Sep 16, 7:04pm

Thu Sep 16, 6:04pm

Thu Sep 16, 5:04pm

Thu Sep 16, 4:04pm

Thu Sep 16, 3:04pm

Thu Sep 16, 2:04pm

Thu Sep 16, 1:05pm

Thu Sep 16, 12:04pm

Thu Sep 16, 11:05am

Thu Sep 16, 10:05am

Thu Sep 16, 9:04am

Thu Sep 16, 8:04am

Thu Sep 16, 7:04am

Thu Sep 16, 6:04am

Thu Sep 16, 5:04am

Thu Sep 16, 4:04am

Thu Sep 16, 3:04am

Thu Sep 16, 2:04am

Thu Sep 16, 1:04am

Thu Sep 16, 12:04am

Wed Sep 15, 11:04pm

Wed Sep 15, 10:04pm

Wed Sep 15, 9:04pm

Wed Sep 15, 8:04pm

Wed Sep 15, 7:04pm

Wed Sep 15, 6:04pm

Wed Sep 15, 5:05pm

Wed Sep 15, 4:04pm

Wed Sep 15, 3:04pm

Meta data:

ID: be35f1fe-9c0f-43fd-a175-788fd3b1dc93
Link: https://api.weather.gov/products/be35f1fe-9c0f-43fd-a175-788fd3b1dc93